Regional Weather Roundup
Issued by NWS

Home | Current Version | Previous Version | Graphics & Text | Print | Product List | Glossary On
Versions: 1 2 3 4 5 6 7 8 9 10 11 12 13 14 15 16 17 18 19 20 21 22 23 24 25 26 27 28 29 30 31 32 33 34 35 36 37 38 39 40 41 42 43 44 45 46 47 48 49 50
000
ASUS45 KCYS 261410
RWRWY

WYOMING REGIONAL WEATHER ROUNDUP
NATIONAL WEATHER SERVICE CHEYENNE WY
800 AM MDT TUE MAY 26 2015

NOTE:  "FAIR" INDICATES FEW OR NO CLOUDS BELOW 12,000 FEET
WITH NO SIGNIFICANT WEATHER AND/OR OBSTRUCTIONS TO VISIBILITY.

WYZ001-261500-
YELLOWSTONE NATIONAL PARK

CITY           SKY/WX    TMP DP  RH WIND       PRES   REMARKS
LK YELLOWSTONE   N/A     40  37  89 CALM      30.12R
W YELLOWSTONE  NOT AVBL

$$
WYZ002>013-054>058-071-098>099-261500-
NORTHERN WYOMING

CITY           SKY/WX    TMP DP  RH WIND       PRES   REMARKS
JACKSON        PTSUNNY   45  43  93 CALM      30.08R
CODY           FAIR      50  43  76 CALM      29.97S
GREYBULL       FAIR      53  45  74 E3        29.96R
WORLAND        CLOUDY    49  46  90 W5        29.97R
SHERIDAN       FAIR      50  46  86 NE3       29.96R
BUFFALO        FAIR      53  43  68 NW6       29.98R
GILLETTE         N/A     53  49  86 SE7       29.98R
HULETT         CLOUDY    54  50  87 CALM      30.00S
NEWCASTLE      CLOUDY    52  50  93 SE7       30.02S

$$
WYZ014>020-022>026-101>103-261500-
CENTRAL WYOMING

CITY           SKY/WX    TMP DP  RH WIND       PRES   REMARKS
BIG PINEY      PTSUNNY   42  39  89 CALM      30.11R
PINEDALE       FAIR      41  41 100 CALM      30.11R
DUBOIS         CLOUDY    43  37  81 NW13      30.07S
LANDER         FAIR      50  43  77 E5        30.00S
RIVERTON       FAIR      51  41  68 SW3       30.02S
CASPER         NOT AVBL
DOUGLAS        FAIR      49  47  93 S3        30.02S

$$
WYZ021-027>030-104>119-261500-
SOUTHERN WYOMING

CITY           SKY/WX    TMP DP  RH WIND       PRES   REMARKS
EVANSTON       CLOUDY    44  39  82 CALM      30.11R
KEMMERER       DRIZZLE   41  37  87 NW7       30.12R
FORT BRIDGER   CLOUDY    46  41  81 NW3       30.14R
ROCK SPRINGS   FAIR      47  41  80 W3        30.10R
DIXON          PTSUNNY   48  42  78 SE6       30.14S
RAWLINS        FAIR      49  42  77 CALM      30.09R
SARATOGA       FAIR      48  43  81 SE7       30.12S
LARAMIE        FAIR      46  40  79 CALM      30.09R
CHEYENNE       CLOUDY    50  40  68 N3        30.06R
TORRINGTON     CLOUDY    48  48 100 W3        30.01S
PINE BLUFFS    CLOUDY    46  45  93 CALM      30.05R

$$



USA.gov is the U.S. government's official web portal to all federal, state and local government web resources and services.